This is the latest recevied weather packets stored in our database for station/object XE1GMR. If no packets are shown the sender has not sent any weather packets the latest 1 day(s).
| Time | Temp. | Humidity | Pressure | Rain* | Wind** | Luminosity | Snow |
|---|---|---|---|---|---|---|---|
| 1778052114 | 18.89° C | 63% | 1122.1 hPa | 0 mm | 0 m/s | 0 W/m² | - |
| 1778051811 | 18.89° C | 63% | 1122.2 hPa | 0 mm | 0 m/s | 0 W/m² | - |
| 1778051509 | 18.89° C | 63% | 1122.5 hPa | 0 mm | 0.45 m/s, 277° | 0 W/m² | - |
| 1778051205 | 18.89° C | 63% | 1122.5 hPa | 0 mm | 0 m/s | 0 W/m² | - |
| 1778050903 | 18.89° C | 63% | 1122.6 hPa | 0 mm | 1.34 m/s, 276° | 0 W/m² | - |
| 1778050601 | 19.44° C | 62% | 1122.5 hPa | 0 mm | 0.45 m/s, 267° | 0 W/m² | - |
| 1778050297 | 19.44° C | 62% | 1122.5 hPa | 0 mm | 0 m/s | 0 W/m² | - |
| 1778049994 | 19.44° C | 62% | 1122.2 hPa | 0 mm | 0 m/s | 0 W/m² | - |
| 1778049689 | 18.89° C | 63% | 1122.4 hPa | 0 mm | 0.45 m/s, 270° | 0 W/m² | - |
| 1778049388 | 18.89° C | 63% | 1122.6 hPa | 0 mm | 0.45 m/s, 278° | 0 W/m² | - |
| 1778049084 | 18.89° C | 64% | 1122.6 hPa | 0 mm | 0.45 m/s, 325° | 0 W/m² | - |
| 1778048783 | 18.89° C | 63% | 1122.4 hPa | 0 mm | 0.45 m/s, 268° | 0 W/m² | - |
| 1778048480 | 18.89° C | 63% | 1122.6 hPa | 0 mm | 0.45 m/s, 276° | 0 W/m² | - |
| 1778048175 | 19.44° C | 63% | 1122.6 hPa | 0 mm | 0.45 m/s, 275° | 0 W/m² | - |
| 1778047874 | 19.44° C | 62% | 1122.4 hPa | 0 mm | 0.45 m/s, 296° | 0 W/m² | - |
| 1778047574 | 19.44° C | 62% | 1122.5 hPa | 0 mm | 0.45 m/s, 311° | 0 W/m² | - |
| 1778047268 | 19.44° C | 63% | 1122.7 hPa | 0 mm | 0 m/s | 0 W/m² | - |
| 1778046966 | 20° C | 62% | 1122.7 hPa | 0 mm | 0.45 m/s, 328° | 0 W/m² | - |
| 1778046662 | 20° C | 61% | 1122.6 hPa | 0 mm | 0.45 m/s, 265° | 0 W/m² | - |
| 1778046359 | 20° C | 61% | 1122.8 hPa | 0 mm | 0.89 m/s, 283° | 0 W/m² | - |
| 1778046055 | 20° C | 62% | 1122.8 hPa | 0 mm | 0.89 m/s, 268° | 0 W/m² | - |
| 1778045753 | 20° C | 61% | 1122.8 hPa | 0 mm | 0.45 m/s, 270° | 0 W/m² | - |
| 1778045452 | 20° C | 61% | 1123 hPa | 0 mm | 1.34 m/s, 272° | 0 W/m² | - |
| 1778045149 | 20° C | 61% | 1122.8 hPa | 0 mm | 0.45 m/s, 275° | 0 W/m² | - |
| 1778044847 | 20° C | 61% | 1122.6 hPa | 0 mm | 0.45 m/s, 278° | 0 W/m² | - |
* Rain latest hour (hover to see other rain measurements)
** Current wind speed in m/s (hover to see current wind gust speed)